Погода в Кагуле

Погода в Кагуле : погода сейчас, прогноз погоды и архив. Всё, что Вы хотите узнать о погоде в Кагуле!

Поиск расширенной информации на нашем сайте:

Другие новости

Новости СМИ2

Главная страница сайта

Новости сайта

03.07.2017

Напоминаем, что на нашем специализированном сайте Метеоцентр.Азия вы можете получить высокодетализированные автоматические прогнозы погоды по пунктам России, СНГ и мира в авиационном формате (включающие направление и скорость ветра, видимость, явления погоды, количество и форму облачности, нижнюю и верхнюю границу облачности).

Рекомендуем: п/э упаковка оптом спб

Погода в Кагуле - сегодня

Время (UTC), дата Ветер
(°,м/с) 
Видим.   Явления Облачность Т
(°С)
Тd
(°С)
f(%) Тe
(°С)
Pmin
(гПа)
dP
(гПа)
Po
(мм)
O2
(г/м3)
Тmin Tmax R s Состояние
почвы
15 20.04.18 340 (С) 7{15}  20000 м    8/0 средняя 
[Ac cast]
+17.6 +3.4 39 +17  1020  755  285           
18 20.04.18 360 (С) 10 км    4/4 600 м 
[Sc]
+14.4 +4 50 +14  1020.3  0.2  755  288    +18.7       
21 20.04.18 340 (С) 10 км    5/0 средняя 
[Ac trans]
+13.2 +4 54 +13  1021.6  1.1  756  290           
00 21.04.18 360 (С) 10 км    ясно 
+11.4 +4.6 63 +12  1021.7  756  292           
03 21.04.18 360 (С) 10 км    ясно 
+9.8 +4.1 68 +11  1021.8  756  293           
06 21.04.18 340 (С) 10 км    ясно 400 м 
+11.9 +5.5 65 +12  1021.7  756  291  +9.6        сухая 
09 21.04.18 330 (СЗ) 20000 м    ясно 
+19.2 +8 48 +20  1020  -1.2  755  283           
12 21.04.18 280 (З) 20000 м    ясно 
+21.4 +7.3 40 +21  1017.9  -2  753  280           
15 21.04.18 290 (З) 20000 м    ясно 
+21.4 +7 39 +21  1015.9  -2  752  280           
18 21.04.18 210 (ЮЗ) 10 км    ясно 
+18.6 +9.3 55 +19  1013.6  -2.3  750  281    +22.1       
21 21.04.18 220 (ЮЗ) 10 км    ясно 
+16 +8.8 62 +16  1013.3  -0.4  750  284           
00 22.04.18 210 (ЮЗ) 10 км    ясно 
+13.7 +8.5 71 +15  1013.3  -0.2  750  286           
03 22.04.18 180 (Ю) 10 км    ясно 
+11.8 +7.7 76 +13  1013.1  -0.2  750  288           
06 22.04.18 250 (З) 20000 м    ясно 
+16.6 +9.9 65 +19  1013.3  0.4  750  283  +11.7         
09 22.04.18 010 (С) 20000 м    4/0 средняя 
[Ac trans]
+21.2 +1.2 26 +21  1013.6  0.4  750  280           
12 22.04.18 330 (СЗ) 20000 м    5/0 средняя, верхняя 
[Ac trans|Ci fib]
+24.2 +11 43 +27  1013  -0.4  750  276           
15 22.04.18 340 (С) 20000 м    5/3 1000 м средняя 
[Cu hum|Ac trans]
+23.6 +10.9 45 +26  1012.1  -0.9  749  276           
18 22.04.18 100 (В) 10 км    6/3 1000 м средняя 
[Sc|Ac trans]
+19.8 +9.4 51 +21  1011.9  -0.4  749  280    +25.2       
21 22.04.18 050 (СВ) 10 км    6/0 средняя 
[Ac trans]
+16.5 +6.2 51 +17  1013.3  1.3  750  284           
00 23.04.18 320 (СЗ) 10 км    6/0 средняя 
[Ac trans]
+14 +5.6 57 +15  1013.5  750  287           
03 23.04.18 340 (С) 10 км    3/0 средняя 
[Ac trans]
+10.3 +3.8 64 +11  1014  0.3  750  291           
06 23.04.18 320 (СЗ) 10 км    4/0 верхняя 
[Ci fib]
+13.2 +5.9 61 +14  1014.2  0.3  750  287  +10         
09 23.04.18 360 (С) 20000 м    4/4 1000 м 
[Cu hum]
+20.8 +6.7 40 +21  1014.7  0.9  751  280           
12 23.04.18 340 (С) 20000 м    3/3 1000 м 
[Cu hum]
+23.9 +2.1 24 +24  1013.7  -0.9  750  278           
15 23.04.18 200 (Ю) 20000 м    4/4 1000 м 
[Sc]
+24.2 +9 38 +24  1012.9  -0.7  750  276           
Время (UTC), дата Ветер
(°,м/с) 
Видим.   Явления Облачность Т
(°С)
Тd
(°С)
f(%) Тe
(°С)
Pmin
(гПа)
dP
(гПа)
Po
(мм)
O2
(г/м3)
Тmin Tmax R s Состояние
почвы

Для получения пояснительной информации подведите курсор к названию столбца.

ПОГОДА в Кагуле - архив

Всё, что Вы хотите узнать о погоде в Кагуле - удобно и подробно!

Выберите нужную дату (начиная с 1 января 2015* года) и нажмите кнопку "Найти".
Будут отображены архивные сводки погоды по пункту Кагул, начиная с указанной даты.


Отображать данные в формате CSV (для использования в таблицах Excel)


Внимание! Наш архив погоды предназначен исключительно для личного некоммерческого использования в познавательных целях. Если Вам необходимы официальные справки о состоянии погоды (для производственных, юридических, коммерческих и т.п. целей), обращайтесь в органы Росгидромета.

*Примечание: данная дата относится к архиву по метеостанциям СССР (Россия, СНГ, Балтия).
Архив по метеостанциям Зарубежной Европы и Азии (кроме Китая) хранится 10 дней, по другим регионам земного шара (Китай, Африка, Америка, Австралия, Океания) - 1 день.

Кагул - район местоположения метеостанции


Название, широта, долгота, высота метеостанции:
Кагул 45.9°ш. 28.2°д. 39 м над ур. моря [Украина]

Дополнительная информация

В oтличие oт бoльшинства пoгoдных сайтoв мы публикуем пoдрoбную метеoинфoрмацию в детальнoм прoфессиoнальнoм фoрмате.

Характеристики температуры и влажнoсти вoздуха измеряются на высoте 2 м в тени вдали oт зданий и деревьев.
Скoрoсть ветра измеряется на высoте 10 м (на урoвне рoста челoвека скoрoсть ветра ниже в 1.5-2 раза). Если метеoстанция нахoдится в гoрoде или в лесу, тo скoрoсть ветра занижена на 2-4 м/с пo сравнению с oткрытым местoм. Скoрoсть ветра над акватoриями крупных рек и oзёр, а также на вершинах хoлмoв на 2-5 м/с выше, чем в oбычных услoвиях.
Атмoсфернoе давление в разных тoчках местнoсти мoжет значительнo oтличаться oт давления на метеoстанции, в зависимoсти oт услoвий рельефа (при пoдъёме на 10 м давление пoнижается примернo на 1 мм рт.ст.).